Regional Weather Roundup
Issued by NWS

Home | Current Version | Previous Version | Text Only | Print | Product List | Glossary On
Versions: 1 2 3 4 5 6 7 8 9 10 11 12 13 14 15 16 17 18 19 20 21 22 23 24 25 26 27 28 29 30 31 32 33 34 35 36 37 38 39 40 41 42 43 44 45 46 47 48 49 50
000
ASUS43 KLMK 250802
RWRKY
KENTUCKY REGIONAL WEATHER ROUNDUP
NATIONAL WEATHER SERVICE LOUISVILLE KY
400 AM EDT FRI APR 25 2014

NOTE "FAIR" INDICATES FEW OR NO CLOUDS BELOW 12,000 FEET
WITH NO SIGNIFICANT WEATHER AND/OR OBSTRUCTIONS TO VISIBILITY.

KYZ001>023-026-027-061>063-070>075-250900-
WESTERN AND SOUTH CENTRAL KENTUCKY

CITY           SKY/WX    TMP DP  RH WIND       PRES   REMARKS
PADUCAH        MOCLDY    59  54  83 W12       29.69R
HENDERSON      MOCLDY    57  55  94 W9        29.63S
OWENSBORO      MOCLDY    58  58 100 S3        29.62F
HOPKINSVILLE   DRIZZLE   64  64 100 SW13      29.66R
BOWLING GREEN  TSTM      62  59  90 SW18G26   29.67F FOG
GLASGOW        NOT AVBL
$$

KYZ024-025-028>034-038-045-046-053-250900-
NORTH CENTRAL KENTUCKY

CITY           SKY/WX    TMP DP  RH WIND       PRES   REMARKS
LOUISVILLE/SDF CLOUDY    61  58  90 SE8       29.64F
LOUISVILLE/LOU CLOUDY    62  56  80 SE5       29.65F
FORT KNOX      CLOUDY    61  60  97 SE13      29.64F
$$

KYZ035>037-039>044-047>052-055>060-089>105-250900-
NORTHEAST KENTUCKY

CITY           SKY/WX    TMP DP  RH WIND       PRES   REMARKS
LEXINGTON      LGT RAIN  64  52  64 SW15G22   29.71R
COVINGTON      LGT RAIN  57  37  47 S9        29.68F
FRANKFORT      LGT RAIN  57  52  83 CALM      29.70R
$$

KYZ054-064>069-076>088-106>120-250900-
SOUTHEAST KENTUCKY

CITY           SKY/WX    TMP DP  RH WIND       PRES   REMARKS
JACKSON        CLOUDY    64  35  34 VRB6      29.75F
LONDON         LGT RAIN  63  49  60 W9        29.78R
SOMERSET       NOT AVBL
MIDDLESBORO    NOT AVBL
MONTICELLO     CLOUDY    60  57  89 CALM      29.76F
$$




USA.gov is the U.S. government's official web portal to all federal, state and local government web resources and services.